Location: Ellingshausen
(50.5460°N, 10.4723°E)
Time: 23:45:11
(UTC+00:00)

Cosmos 1758 - Pass Details

Date: 18 January 2026
Orbit: 479 x 500 km, 82.5° (Epoch: 18 February)

Event Time Altitude Azimuth Distance (km) Brightness Sun altitude
Rises 05:29:49 0° 208° (SSW) 2,576 6.6 -15.5°
Reaches altitude 10° 05:32:02 10° 217° (SW) 1,695 5.6 -15.2°
Maximum altitude 05:35:30 37° 286° (WNW) 781 3.6 -14.6°
Drops below altitude 10° 05:38:59 10° 356° (N) 1,696 5.6 -14.1°
Sets 05:41:13 0° 4° (N) 2,579 6.6 -13.8°
